Regional Weather Roundup
Issued by NWS

Home | Current Version | Previous Version | Graphics & Text | Print | Product List | Glossary On
Versions: 1 2 3 4 5 6 7 8 9 10 11 12 13 14 15 16 17 18 19 20 21 22 23 24 25 26 27 28 29 30 31 32 33 34 35 36 37 38 39 40 41 42 43 44 45 46 47 48 49 50
000
ASUS43 KDTX 301410
RWRMI
MICHIGAN HOURLY REGIONAL WEATHER ROUNDUP
NATIONAL WEATHER SERVICE DETROIT/PONTIAC MI
1000 AM EDT MON MAY 30 2016

NOTE: "FAIR" INDICATES FEW OR NO CLOUDS BELOW 12,000 FEET WITH NO
SIGNIFICANT WEATHER AND/OR OBSTRUCTION TO VISIBILITY.

MIZ047>049-052>055-059>063-066>070-074>076-081>083-301500-
SOUTHEAST LOWER MICHIGAN

CITY           SKY/WX    TMP DP  RH WIND       PRES   REMARKS
ADRIAN         SUNNY     73  60  63 W3        30.03S
ALMA           SUNNY     71  59  65 W7        30.02S
ANN ARBOR      SUNNY     74  59  59 NW5       30.02R
BAD AXE        SUNNY     72  55  56 W10G16    30.00S
CARO           SUNNY     73  57  57 NW8       30.00S
DETROIT CITY   SUNNY     76  59  55 VRB5      30.01R
DETROIT        MOSUNNY   75  60  59 W3        30.02S
FLINT          SUNNY     76  57  51 NW6       30.01S
GROSSE ILE     SUNNY     73  61  64 CALM      30.00S
HILLSDALE      SUNNY     73  54  51 W3        30.04S
HOWELL         SUNNY     73  57  58 CALM      30.03R

CITY           SKY/WX    TMP DP  RH WIND       PRES   REMARKS
JACKSON        SUNNY     72  58  61 CALM      30.03S
LAMBERTVILLE   SUNNY     77  60  55 CALM      30.03R
LANSING        SUNNY     71  58  63 CALM      30.03R
LAPEER         FAIR      71  58  63 W3        30.01F
MASON          SUNNY     71  59  65 CALM      30.03S
MONROE         SUNNY     74  61  64 W12       30.01S
MT. CLEMENS    SUNNY     74  60  61 N7        30.00R
PONTIAC        MOSUNNY   73  57  57 NW5       30.01S
PORT HOPE        N/A     71  57  61 W8        29.97R
PORT HURON     SUNNY     72  59  64 NW10      30.00S
TRI CITIES     SUNNY     73  57  57 W6        30.01R
MIDLAND        FAIR      72  57  58 NW6       30.00R
TROY           SUNNY     74  56  53 N7        30.03R
SAGINAW HB     SUNNY     72  55  56 W7        30.00S
$$
MIZ043>046-050>051-056>058-064>065-071>073-077>080-301500-
SOUTHWEST LOWER MICHIGAN

CITY           SKY/WX    TMP DP  RH WIND       PRES   REMARKS
BATTLE CREEK   SUNNY     72  60  66 CALM      30.04S
BENTON HARBOR  SUNNY     71  59  65 VRB3      30.03S
BIG RAPIDS     SUNNY     71  58  64 W3        30.01S
COLDWATER      SUNNY     74  59  60 NW3       30.04R
FREMONT        FAIR      69  62  77 SW3       30.02S
HOLLAND        SUNNY     73  60  63 SW6       30.03S
GRAND RAPIDS   MOSUNNY   74  60  61 S3        30.02S
IONIA          FAIR      72  57  59 W3        30.02S
KALAMAZOO      SUNNY     74  58  57 W3        30.03S
LUDINGTON      SUNNY     66  59  76 W5        30.02R
MARSHALL       SUNNY     73  60  63 CALM      30.03S
MOUNT PLEASANT SUNNY     71  58  63 W5        30.01R
MUSKEGON       SUNNY     70  56  61 SW6       30.03R
SOUTH HAVEN    SUNNY     72  60  65 CALM      30.03S
$$
MIZ016>042-301500-
NORTHERN LOWER MICHIGAN

CITY           SKY/WX    TMP DP  RH WIND       PRES   REMARKS
ALPENA         MOSUNNY   70  55  59 W9        29.95R
BEAVER ISLAND  MOSUNNY   62  56  81 W9        29.96R
BELLAIRE       SUNNY     69  55  61 W7        29.98S
CADILLAC       SUNNY     70  56  62 NW8       30.00S
CHARLEVOIX     SUNNY     66  57  72 W9        29.99S
FRANKFORT      SUNNY     64  59  83 SW5       30.00S
GAYLORD        SUNNY     66  53  63 W10       29.98S
GRAYLING       SUNNY     69  55  60 W13       30.00R
HARBOR SPRINGS SUNNY     60  55  83 W6        29.96S
HOUGHTON LAKE  SUNNY     67  55  65 W9        30.00S
OSCODA         MOSUNNY   74  54  50 W13G26    29.95F
PELLSTON       SUNNY     68  53  58 NW14      29.95S
ROGERS CITY    MOSUNNY   68  54  62 W12G17    29.95S
TRAVERSE CITY  MOSUNNY   72  57  59 W7        29.97S
$$
MIZ007>008-015-301500-
EASTERN UPPER MICHIGAN

CITY           SKY/WX    TMP DP  RH WIND       PRES   REMARKS
KINROSS          N/A     64  55  72 W13G21    29.91S
MACKINAC ISLAN SUNNY     60  57  91 W9        29.93S
NEWBERRY       MOSUNNY   65  58  77 W10G16    29.93R
S. S. MARIE    SUNNY     63  56  78 W10       29.90S
MUNISING         N/A     67  55  65 VRB6      29.93R
$$
MIZ004>006-011>014-085-301500-
CENTRAL UPPER MICHIGAN

CITY           SKY/WX    TMP DP  RH WIND       PRES   REMARKS
MANISTIQUE     SUNNY     67  59  73 W8        29.94R
ESCANABA       SUNNY     68  55  64 W13       29.95S
MENOMINEE      SUNNY     70  55  60 VRB7      29.99S
SAWYER-GWINN   SUNNY     63  55  77 W9        29.96R
$$
MIZ001>003-009>011-084-301500-
WESTERN UPPER MICHIGAN

CITY           SKY/WX    TMP DP  RH WIND       PRES   REMARKS
IRON MOUNTAIN  SUNNY     67  53  61 W12G17    29.96F
HOUGHTON       SUNNY     62  53  72 W18       29.93R
COPPER HARBOR    N/A     63  53  70 NW15G25   29.90R
IRONWOOD       SUNNY     64  55  72 W9        29.96S
$$

ABBREVIATIONS USED IN REMARKS
   TC - TEMPERATURE IN CELSIUS
  WCI - WIND CHILL INDEX
   HX - HEAT INDEX
  VSB - VISIBILITY




USA.gov is the U.S. government's official web portal to all federal, state and local government web resources and services.